Find Starlink 32601

NORAD ID: 61973 Int'l Des: 2024-210 Owner: SPXS Country: US Constellation: starlink operational
LEOCIRCULAR

当前视图

正在加载3D地球...

关于 Starlink 32601

正在加载描述...

即将过境

Passes for default location (London). Set your location on the main map for personalized predictions.

高度历史

Loading altitude history...

两行轨道根数

1 61973U 24210Q 26145.18926161 .00019617 00000-0 72016-3 0 9990
2 61973 42.9976 107.4462 0000469 219.8625 140.2193 15.27594329 86585
Epoch: May 25, 2026 • Age: 5 hours

当前状态

高度 490.3 km
速度 7.62 km/s
星下点 -28.20°S, 52.63°E
发射日期 Nov 14, 2024
运行时间 1.5 years
类型 internet

技术详情

分类 Payload
质量 730.00 kg
干质量 700.00 kg
总质量 730.00 kg
长度 0.30 m
直径 4.10 m
跨度 29.00 m
形状 Box + pan
制造商 SPXS
平台类型 Starlink V2M
阶段状态 In Orbit
所有者/国家 SPXS/US

Most Searched